Flag for U.S.A. Weather past 2 weeks in Pierre, South Dakota, U.S.A.

Now
71 °F

Sunny.


Feels Like: 76 °F
Forecast: 58 / 73 °F
Wind: 16 mph from Southeast

Location: Pierre Regional Airport

Current Time: Sep 23, 2014 at 6:11:41 PM

Latest Report: Sep 23, 2014 at 4:53 PM


Visibility: 10 mi

Pressure: 29.85 "Hg

Humidity: 61%

Dew point: 57 °F

Location of PierreLocation

Historic Weather in Pierre — Graph

°F

Pierre temperature yesterday

Maximum temperature yesterday: 82 °F (at 3:53 PM)
Minimum temperature yesterday: 44 °F (at 12:53 AM)
Average temperature yesterday: 63 °F

Past Weeks' High & Low Weather Summary

 TemperatureHumidityPressure
High90 °F (Sep 8, 4:53 PM)100% (Sep 9, 10:53 AM)30.54 "Hg (Sep 9, 10:53 AM)
Low36 °F (Sep 15, 6:53 AM)19% (Sep 8, 4:53 PM)29.62 "Hg (Sep 19, 4:53 AM)
Average58 °F68%30.04 "Hg
* Reported Sep 8 4:53 PM — Sep 23 4:53 PM, Pierre, Weather by CustomWeather, © 2014

Note: Actual official high and low records may vary slightly from our data, if they occured in-between our weather recording intervals... More about our weather records

Advertising

Pierre weather history for previous 24 hours

 ConditionsComfort  
Time TempWeatherWind HumidityBarometerVisibility
4:53 PM
Sep 23
71 °FSunny.16 mph61%29.85 "Hg10 mi
3:53 PM70 °FPartly sunny.16 mph64%29.85 "Hg10 mi
2:53 PM67 °FOvercast.17 mph71%29.87 "Hg10 mi
1:53 PM66 °FOvercast.14 mph70%29.88 "Hg10 mi
12:53 PM64 °FOvercast.17 mph75%29.89 "Hg10 mi
11:53 AM64 °FOvercast.20 mph75%29.90 "Hg10 mi
10:53 AM63 °FOvercast.16 mph78%29.90 "Hg10 mi
9:53 AM61 °FOvercast.16 mph81%29.90 "Hg10 mi
8:53 AM58 °FSunny.13 mph84%29.90 "Hg10 mi
7:53 AM58 °FPassing clouds.14 mph81%29.90 "Hg10 mi
6:53 AM59 °FPassing clouds.14 mph81%29.90 "Hg10 mi
5:53 AM61 °FPassing clouds.24 mph75%29.90 "Hg10 mi
4:53 AM61 °FClear.21 mph78%29.90 "Hg10 mi
3:53 AM62 °FOvercast.15 mph75%29.91 "Hg10 mi
2:53 AM62 °FPassing clouds.17 mph75%29.92 "Hg10 mi
1:53 AM61 °FClear.12 mph81%29.92 "Hg10 mi
12:53 AM62 °FClear.18 mph78%29.94 "Hg10 mi
11:53 PM
Sep 22
62 °FPassing clouds.18 mph75%29.94 "Hg10 mi
10:53 PM63 °FClear.18 mph70%29.96 "Hg10 mi
9:53 PM65 °FClear.17 mph63%29.97 "Hg10 mi
8:53 PM66 °FOvercast.15 mph59%29.98 "Hg10 mi
7:53 PM69 °FPartly sunny.20 mph51%29.98 "Hg10 mi
6:53 PM73 °FScattered clouds.21 mph41%29.96 "Hg10 mi
Weather by CustomWeather, © 2014

See weather overviewHow to use our weather pages